Location: Byszew
(52.1813°N, 19.2693°E)
Time: 07:21:55
(UTC+00:00)

UKube-1 - Visible Passes

Search period start: 25 June 2022 00:00
Search period end: 05 July 2022 00:00
Orbit: 610 x 614 km, 98.4° (Epoch: 24 June)

Date Brightness Start Highest point End Pass type
(mag) Time Alt. Az. Time Alt. Az. Time Alt. Az.
25 Jun ? 20:38:28 10° NNE 20:42:45 59° ESE 20:46:59 10° S visible
25 Jun ? 22:15:04 10° N 22:18:17 21° WNW 22:21:30 10° WSW visible
26 Jun ? 20:53:16 10° NNE 20:57:37 81° ESE 21:01:54 10° SSW visible
26 Jun ? 22:30:17 10° NNW 22:32:58 16° NW 22:35:38 10° W visible
27 Jun ? 21:08:07 10° NNE 21:12:26 75° WNW 21:16:43 10° SSW visible
27 Jun ? 22:45:42 10° NNW 22:47:36 13° NW 22:49:31 10° W visible
28 Jun ? 21:23:00 10° N 21:27:14 55° WNW 21:31:25 10° SW visible
29 Jun ? 20:02:16 10° NE 20:05:57 27° E 20:09:37 10° SSE visible
29 Jun ? 21:37:56 10° N 21:41:59 41° WNW 21:46:01 10° SW visible
30 Jun ? 20:16:52 10° NNE 20:20:53 36° E 20:24:51 10° SSE visible
30 Jun ? 21:52:55 10° N 21:56:43 31° WNW 22:00:30 10° SW visible
01 Jul ? 20:31:33 10° NNE 20:35:46 49° E 20:39:50 11° S visible
01 Jul ? 22:07:58 10° N 22:11:25 24° WNW 22:14:52 10° WSW visible
02 Jul ? 20:46:19 10° NNE 20:50:38 68° ESE 20:54:47 11° S visible
02 Jul ? 22:23:04 10° NNW 22:26:05 19° WNW 22:29:05 10° WSW visible
03 Jul ? 21:01:06 10° NNE 21:05:27 89° WNW 21:09:44 10° SSW visible
03 Jul ? 22:38:20 10° NNW 22:40:43 15° NW 22:43:07 10° W visible
04 Jul ? 21:15:57 10° N 21:20:14 66° WNW 21:24:29 10° SSW visible
04 Jul ? 22:53:53 10° NNW 22:55:20 12° NW 22:56:46 10° WNW visible
